| time (UTC) | temp C | wind direction | speed KPH | gust KPH | rain 1hr cm | rain 24hr cm | rain mn cm | humidity % | barometer mb |
| 20260508005509 | 16 | 212 | 3.2 | 3.2 | 0.00 | 0.00 | 0.00 | 81 | 1010.2 |
| 20260508005013 | 16 | 275 | 3.2 | 3.2 | 0.00 | 0.00 | 0.00 | 81 | 1010.2 |
| 20260508004513 | 16 | 351 | 4.8 | 6.4 | 0.00 | 0.00 | 0.00 | 81 | 1010.2 |
| 20260508004013 | 16 | 344 | 1.6 | 3.2 | 0.00 | 0.00 | 0.00 | 82 | 1010.2 |
| 20260508003510 | 16 | 267 | 1.6 | 3.2 | 0.00 | 0.00 | 0.00 | 82 | 1010.2 |
| 20260508003023 | 16 | 318 | 3.2 | 6.4 | 0.00 | 0.00 | 0.00 | 82 | 1010.5 |
| 20260508002509 | 16 | 329 | 3.2 | 4.8 | 0.00 | 0.00 | 0.00 | 83 | 1010.5 |
| 20260508002013 | 15 | 261 | 3.2 | 3.2 | 0.00 | 0.00 | 0.00 | 82 | 1010.5 |
| 20260508001518 | 16 | 220 | 3.2 | 4.8 | 0.00 | 0.00 | 0.00 | 80 | 1010.5 |
| 20260508000510 | 16 | 329 | 6.4 | 6.4 | 0.00 | 0.00 | 0.00 | 83 | 1010.8 |
| 20260508000035 | 16 | 0 | 11.3 | 11.3 | 0.00 | 0.00 | 0.00 | 84 | 1010.8 |
| 20260507235510 | 15 | 297 | 1.6 | 1.6 | 0.00 | 0.00 | 0.00 | 84 | 1010.8 |
| 20260507235013 | 15 | 256 | 1.6 | 1.6 | 0.00 | 0.00 | 0.00 | 84 | 1011.2 |
| 20260507234512 | 15 | 270 | 1.6 | 3.2 | 0.00 | 0.00 | 0.00 | 83 | 1011.2 |
| 20260507234013 | 15 | 231 | 1.6 | 1.6 | 0.00 | 0.00 | 0.00 | 82 | 1011.2 |
| 20260507233023 | 16 | 281 | 1.6 | 3.2 | 0.00 | 0.00 | 0.00 | 80 | 1011.2 |
| 20260507232509 | 16 | 333 | 3.2 | 3.2 | 0.00 | 0.00 | 0.00 | 80 | 1011.2 |
| 20260507232013 | 16 | 339 | 3.2 | 4.8 | 0.00 | 0.00 | 0.00 | 80 | 1010.8 |
| 20260507231513 | 16 | 325 | 1.6 | 1.6 | 0.00 | 0.00 | 0.00 | 80 | 1011.2 |
| 20260507231014 | 16 | 324 | 1.6 | 3.2 | 0.00 | 0.00 | 0.00 | 80 | 1011.2 |
| 20260507230509 | 16 | 282 | 6.4 | 8.0 | 0.00 | 0.00 | 0.00 | 82 | 1011.2 |
| 20260507230032 | 16 | 262 | 3.2 | 3.2 | 0.00 | 0.00 | 0.00 | 82 | 1011.5 |
| 20260507225510 | 16 | 249 | 4.8 | 6.4 | 0.00 | 0.00 | 0.00 | 80 | 1011.2 |
| 20260507225013 | 17 | 314 | 3.2 | 3.2 | 0.00 | 0.00 | 0.00 | 78 | 1011.2 |
| 20260507224012 | 17 | 299 | 3.2 | 4.8 | 0.00 | 0.00 | 0.00 | 79 | 1011.2 |
| 20260507223511 | 17 | 238 | 3.2 | 4.8 | 0.00 | 0.00 | 0.00 | 80 | 1011.5 |
| 20260507222511 | 17 | 291 | 1.6 | 3.2 | 0.00 | 0.00 | 0.00 | 81 | 1011.5 |
| 20260507222013 | 17 | 244 | 0.0 | 0.0 | 0.00 | 0.00 | 0.00 | 80 | 1011.5 |
| 20260507221513 | 17 | 161 | 0.0 | 1.6 | 0.00 | 0.00 | 0.00 | 79 | 1011.5 |
| 20260507221013 | 17 | 291 | 6.4 | 9.7 | 0.00 | 0.00 | 0.00 | 80 | 1011.2 |
| 20260507220510 | 17 | 227 | 3.2 | 4.8 | 0.00 | 0.00 | 0.00 | 80 | 1011.2 |
| 20260507220034 | 17 | 257 | 1.6 | 3.2 | 0.00 | 0.00 | 0.00 | 78 | 1011.2 |
| 20260507215511 | 17 | 267 | 6.4 | 8.0 | 0.00 | 0.00 | 0.00 | 77 | 1011.9 |
| 20260507215014 | 17 | 283 | 6.4 | 8.0 | 0.00 | 0.00 | 0.00 | 77 | 1011.5 |
| 20260507214513 | 17 | 292 | 3.2 | 4.8 | 0.00 | 0.00 | 0.00 | 77 | 1011.5 |
| 20260507214015 | 17 | 338 | 6.4 | 6.4 | 0.00 | 0.00 | 0.00 | 77 | 1011.5 |
| 20260507213509 | 17 | 262 | 3.2 | 6.4 | 0.00 | 0.00 | 0.00 | 78 | 1011.5 |
| 20260507213022 | 17 | 286 | 6.4 | 8.0 | 0.00 | 0.00 | 0.00 | 80 | 1011.5 |
| 20260507212510 | 17 | 266 | 1.6 | 3.2 | 0.00 | 0.00 | 0.00 | 80 | 1011.5 |
| 20260507212014 | 17 | 262 | 1.6 | 3.2 | 0.00 | 0.00 | 0.00 | 80 | 1011.5 |
| 20260507211513 | 16 | 273 | 3.2 | 4.8 | 0.00 | 0.00 | 0.00 | 82 | 1011.5 |
| 20260507211014 | 16 | 245 | 3.2 | 3.2 | 0.00 | 0.00 | 0.00 | 82 | 1011.2 |
| 20260507210510 | 16 | 235 | 1.6 | 3.2 | 0.00 | 0.00 | 0.00 | 81 | 1011.5 |
| 20260507210033 | 16 | 237 | 3.2 | 3.2 | 0.00 | 0.00 | 0.00 | 81 | 1011.5 |
| 20260507205511 | 16 | 202 | 3.2 | 4.8 | 0.00 | 0.00 | 0.00 | 80 | 1011.2 |
| 20260507205014 | 16 | 238 | 3.2 | 3.2 | 0.00 | 0.00 | 0.00 | 79 | 1011.2 |
| 20260507204513 | 17 | 194 | 6.4 | 6.4 | 0.00 | 0.00 | 0.00 | 78 | 1011.2 |
| 20260507204015 | 17 | 248 | 3.2 | 6.4 | 0.00 | 0.00 | 0.00 | 77 | 1011.5 |
| 20260507203509 | 17 | 202 | 0.0 | 0.0 | 0.00 | 0.00 | 0.00 | 76 | 1011.2 |
| 20260507203023 | 17 | 238 | 1.6 | 3.2 | 0.00 | 0.00 | 0.00 | 76 | 1011.2 |
| 20260507202509 | 17 | 268 | 3.2 | 4.8 | 0.00 | 0.00 | 0.00 | 75 | 1011.5 |
| 20260507202014 | 17 | 273 | 8.0 | 9.7 | 0.00 | 0.00 | 0.00 | 76 | 1011.2 |
| 20260507201513 | 17 | 285 | 3.2 | 4.8 | 0.00 | 0.00 | 0.00 | 76 | 1011.2 |
| 20260507201013 | 17 | 270 | 3.2 | 4.8 | 0.00 | 0.00 | 0.00 | 76 | 1011.2 |
| 20260507200509 | 17 | 193 | 1.6 | 3.2 | 0.00 | 0.00 | 0.00 | 76 | 1010.8 |
| 20260507195509 | 17 | 187 | 0.0 | 1.6 | 0.00 | 0.00 | 0.00 | 76 | 1011.5 |
| 20260507195013 | 17 | 16 | 1.6 | 3.2 | 0.00 | 0.00 | 0.00 | 77 | 1011.2 |
| 20260507194513 | 17 | 295 | 1.6 | 3.2 | 0.00 | 0.00 | 0.00 | 77 | 1011.2 |
| 20260507194013 | 17 | 94 | 1.6 | 3.2 | 0.00 | 0.00 | 0.00 | 78 | 1011.2 |
| 20260507193510 | 17 | 4 | 1.6 | 3.2 | 0.00 | 0.00 | 0.00 | 78 | 1011.2 |
| 20260507192510 | 17 | 348 | 3.2 | 4.8 | 0.00 | 0.00 | 0.00 | 78 | 1011.2 |
| 20260507192013 | 17 | 186 | 0.0 | 1.6 | 0.00 | 0.00 | 0.00 | 78 | 1010.8 |
| 20260507191513 | 17 | 41 | 3.2 | 4.8 | 0.00 | 0.00 | 0.00 | 78 | 1011.2 |
| 20260507191014 | 17 | 58 | 0.0 | 1.6 | 0.00 | 0.00 | 0.00 | 78 | 1010.8 |
| 20260507190510 | 17 | 178 | 1.6 | 1.6 | 0.00 | 0.00 | 0.00 | 78 | 1011.2 |
| 20260507190033 | 17 | 265 | 1.6 | 1.6 | 0.00 | 0.00 | 0.00 | 78 | 1010.8 |
| 20260507185014 | 17 | 348 | 3.2 | 6.4 | 0.00 | 0.00 | 0.00 | 78 | 1011.2 |
| 20260507184013 | 17 | 0 | 8.0 | 9.7 | 0.00 | 0.00 | 0.00 | 78 | 1011.2 |
| 20260507183509 | 17 | 357 | 6.4 | 9.7 | 0.00 | 0.00 | 0.00 | 77 | 1011.2 |
| 20260507183024 | 17 | 337 | 4.8 | 6.4 | 0.00 | 0.00 | 0.00 | 77 | 1011.2 |
| 20260507182510 | 17 | 338 | 1.6 | 3.2 | 0.00 | 0.00 | 0.00 | 77 | 1011.2 |
| 20260507182014 | 17 | 0 | 1.6 | 1.6 | 0.00 | 0.00 | 0.00 | 77 | 1011.2 |
| 20260507181513 | 17 | 14 | 3.2 | 3.2 | 0.00 | 0.00 | 0.00 | 77 | 1010.8 |
| 20260507181013 | 17 | 0 | 6.4 | 8.0 | 0.00 | 0.00 | 0.00 | 77 | 1010.8 |
| 20260507180509 | 17 | 2 | 6.4 | 9.7 | 0.00 | 0.00 | 0.00 | 77 | 1010.8 |
| 20260507180032 | 17 | 310 | 3.2 | 6.4 | 0.00 | 0.00 | 0.00 | 76 | 1010.8 |
| 20260507175014 | 18 | 22 | 4.8 | 6.4 | 0.00 | 0.00 | 0.00 | 76 | 1011.2 |
| 20260507174513 | 18 | 11 | 6.4 | 6.4 | 0.00 | 0.00 | 0.00 | 75 | 1011.2 |
| 20260507174014 | 18 | 357 | 3.2 | 6.4 | 0.00 | 0.00 | 0.00 | 74 | 1011.2 |
| 20260507173510 | 18 | 129 | 1.6 | 3.2 | 0.00 | 0.00 | 0.00 | 73 | 1011.2 |
| 20260507172509 | 18 | 301 | 3.2 | 4.8 | 0.00 | 0.00 | 0.00 | 72 | 1010.8 |
| 20260507172014 | 20 | 25 | 1.6 | 3.2 | 0.00 | 0.00 | 0.00 | 70 | 1011.2 |
| 20260507171513 | 20 | 287 | 3.2 | 3.2 | 0.00 | 0.00 | 0.00 | 69 | 1011.2 |
| 20260507170509 | 21 | 346 | 4.8 | 6.4 | 0.00 | 0.00 | 0.00 | 65 | 1011.2 |
| 20260507170032 | 21 | 16 | 1.6 | 3.2 | 0.00 | 0.00 | 0.00 | 68 | 1010.8 |
| 20260507165510 | 20 | 90 | 1.6 | 3.2 | 0.00 | 0.00 | 0.00 | 69 | 1011.2 |
| 20260507165013 | 21 | 42 | 1.6 | 3.2 | 0.00 | 0.00 | 0.00 | 68 | 1011.2 |
| 20260507164513 | 21 | 143 | 3.2 | 6.4 | 0.00 | 0.00 | 0.00 | 66 | 1011.2 |
| 20260507164013 | 21 | 31 | 8.0 | 9.7 | 0.00 | 0.00 | 0.00 | 64 | 1010.8 |
| 20260507163510 | 21 | 43 | 0.0 | 1.6 | 0.00 | 0.00 | 0.00 | 63 | 1010.8 |
| 20260507163024 | 21 | 280 | 1.6 | 3.2 | 0.00 | 0.00 | 0.00 | 64 | 1011.2 |
| 20260507162509 | 21 | 343 | 6.4 | 6.4 | 0.00 | 0.00 | 0.00 | 65 | 1010.8 |
| 20260507161513 | 21 | 94 | 6.4 | 8.0 | 0.00 | 0.00 | 0.00 | 63 | 1011.2 |
| 20260507161013 | 21 | 354 | 3.2 | 4.8 | 0.00 | 0.00 | 0.00 | 67 | 1011.2 |
| 20260507160510 | 20 | 337 | 9.7 | 11.3 | 0.00 | 0.00 | 0.00 | 66 | 1010.8 |
| 20260507160034 | 21 | 348 | 4.8 | 6.4 | 0.00 | 0.00 | 0.00 | 65 | 1010.5 |
| 20260507155510 | 21 | 11 | 6.4 | 9.7 | 0.00 | 0.00 | 0.00 | 65 | 1010.8 |
| 20260507155015 | 21 | 297 | 3.2 | 6.4 | 0.00 | 0.00 | 0.00 | 65 | 1011.2 |
| 20260507154515 | 21 | 45 | 3.2 | 4.8 | 0.00 | 0.00 | 0.00 | 66 | 1010.8 |
| 20260507154013 | 20 | 21 | 9.7 | 11.3 | 0.00 | 0.00 | 0.00 | 66 | 1010.8 |
| 20260507153509 | 20 | 349 | 9.7 | 11.3 | 0.00 | 0.00 | 0.00 | 67 | 1010.8 |
| 20260507153024 | 20 | 32 | 11.3 | 14.5 | 0.00 | 0.00 | 0.00 | 67 | 1010.8 |
| 20260507152509 | 20 | 63 | 8.0 | 11.3 | 0.00 | 0.00 | 0.00 | 69 | 1010.8 |
| 20260507152014 | 20 | 353 | 6.4 | 6.4 | 0.00 | 0.00 | 0.00 | 68 | 1010.8 |
| 20260507151514 | 20 | 30 | 6.4 | 6.4 | 0.00 | 0.00 | 0.00 | 67 | 1011.2 |
| 20260507151013 | 20 | 21 | 9.7 | 11.3 | 0.00 | 0.00 | 0.00 | 67 | 1010.8 |
| 20260507150510 | 20 | 18 | 8.0 | 11.3 | 0.00 | 0.00 | 0.00 | 67 | 1011.2 |
| 20260507150033 | 20 | 4 | 9.7 | 11.3 | 0.00 | 0.00 | 0.00 | 67 | 1011.2 |
| 20260507145510 | 20 | 2 | 11.3 | 12.9 | 0.00 | 0.00 | 0.00 | 66 | 1011.2 |
| 20260507145013 | 20 | 358 | 9.7 | 11.3 | 0.00 | 0.00 | 0.00 | 65 | 1011.2 |
| 20260507143510 | 20 | 2 | 11.3 | 12.9 | 0.00 | 0.00 | 0.00 | 67 | 1011.2 |
| 20260507142510 | 21 | 289 | 4.8 | 6.4 | 0.00 | 0.00 | 0.00 | 65 | 1011.2 |
| 20260507142013 | 21 | 51 | 8.0 | 9.7 | 0.00 | 0.00 | 0.00 | 65 | 1011.2 |
| 20260507141513 | 20 | 15 | 9.7 | 11.3 | 0.00 | 0.00 | 0.00 | 66 | 1011.2 |
| 20260507141014 | 21 | 45 | 9.7 | 11.3 | 0.00 | 0.00 | 0.00 | 64 | 1011.5 |
| 20260507140509 | 21 | 112 | 8.0 | 9.7 | 0.00 | 0.00 | 0.00 | 63 | 1011.5 |
| 20260507140033 | 21 | 324 | 4.8 | 8.0 | 0.00 | 0.00 | 0.00 | 66 | 1011.5 |
| 20260507135510 | 21 | 42 | 9.7 | 11.3 | 0.00 | 0.00 | 0.00 | 63 | 1011.2 |
| 20260507134513 | 20 | 352 | 6.4 | 8.0 | 0.00 | 0.00 | 0.00 | 67 | 1011.5 |
| 20260507134012 | 20 | 5 | 6.4 | 9.7 | 0.00 | 0.00 | 0.00 | 67 | 1011.5 |
| 20260507133510 | 20 | 352 | 9.7 | 14.5 | 0.00 | 0.00 | 0.00 | 68 | 1011.9 |
| 20260507133024 | 20 | 12 | 9.7 | 11.3 | 0.00 | 0.00 | 0.00 | 69 | 1011.9 |
| 20260507132509 | 20 | 13 | 11.3 | 14.5 | 0.00 | 0.00 | 0.00 | 69 | 1011.9 |
| 20260507132013 | 20 | 357 | 8.0 | 11.3 | 0.00 | 0.00 | 0.00 | 69 | 1011.9 |
| 20260507131513 | 18 | 29 | 11.3 | 12.9 | 0.00 | 0.00 | 0.00 | 68 | 1012.2 |
| 20260507131013 | 18 | 43 | 12.9 | 14.5 | 0.00 | 0.00 | 0.00 | 68 | 1011.9 |
| 20260507130510 | 20 | 15 | 9.7 | 11.3 | 0.00 | 0.00 | 0.00 | 69 | 1011.9 |
| 20260507130032 | 20 | 24 | 9.7 | 12.9 | 0.00 | 0.00 | 0.00 | 69 | 1012.2 |
| 20260507125510 | 20 | 358 | 8.0 | 8.0 | 0.00 | 0.00 | 0.00 | 68 | 1012.2 |
| 20260507125014 | 20 | 351 | 6.4 | 11.3 | 0.00 | 0.00 | 0.00 | 68 | 1012.2 |
| 20260507124513 | 20 | 28 | 8.0 | 9.7 | 0.00 | 0.00 | 0.00 | 67 | 1012.2 |
| 20260507123510 | 20 | 220 | 4.8 | 6.4 | 0.00 | 0.00 | 0.00 | 67 | 1012.2 |
| 20260507123024 | 20 | 12 | 9.7 | 11.3 | 0.00 | 0.00 | 0.00 | 69 | 1012.5 |
| 20260507122509 | 20 | 342 | 3.2 | 4.8 | 0.00 | 0.00 | 0.00 | 70 | 1012.2 |
| 20260507122013 | 18 | 88 | 8.0 | 9.7 | 0.00 | 0.00 | 0.00 | 69 | 1012.5 |
| 20260507121513 | 20 | 17 | 9.7 | 11.3 | 0.00 | 0.00 | 0.00 | 68 | 1012.5 |
| 20260507121013 | 20 | 32 | 8.0 | 8.0 | 0.00 | 0.00 | 0.00 | 70 | 1012.2 |
| 20260507120510 | 18 | 357 | 6.4 | 8.0 | 0.00 | 0.00 | 0.00 | 69 | 1012.2 |
| 20260507120033 | 20 | 27 | 9.7 | 11.3 | 0.00 | 0.00 | 0.00 | 70 | 1012.2 |
| 20260507115510 | 18 | 358 | 9.7 | 11.3 | 0.00 | 0.00 | 0.00 | 70 | 1012.2 |
| 20260507115014 | 18 | 31 | 11.3 | 11.3 | 0.00 | 0.00 | 0.00 | 69 | 1012.5 |
| 20260507114514 | 20 | 55 | 9.7 | 11.3 | 0.00 | 0.00 | 0.00 | 70 | 1012.2 |
| 20260507113509 | 20 | 29 | 6.4 | 8.0 | 0.00 | 0.00 | 0.00 | 69 | 1012.2 |
| 20260507113023 | 18 | 25 | 8.0 | 8.0 | 0.00 | 0.00 | 0.00 | 71 | 1012.2 |
| 20260507112509 | 18 | 0 | 8.0 | 9.7 | 0.00 | 0.00 | 0.00 | 72 | 1012.5 |
| 20260507112013 | 18 | 34 | 6.4 | 9.7 | 0.00 | 0.00 | 0.00 | 71 | 1012.2 |
| 20260507111513 | 18 | 333 | 12.9 | 14.5 | 0.00 | 0.00 | 0.00 | 70 | 1012.5 |
| 20260507111013 | 18 | 3 | 9.7 | 11.3 | 0.00 | 0.00 | 0.00 | 70 | 1012.5 |
| 20260507110510 | 18 | 162 | 6.4 | 6.4 | 0.00 | 0.00 | 0.00 | 71 | 1012.5 |
| 20260507110032 | 18 | 330 | 6.4 | 9.7 | 0.00 | 0.00 | 0.00 | 71 | 1012.9 |
| 20260507105509 | 18 | 33 | 9.7 | 11.3 | 0.00 | 0.00 | 0.00 | 69 | 1012.9 |
| 20260507105013 | 18 | 334 | 6.4 | 8.0 | 0.00 | 0.00 | 0.00 | 71 | 1012.5 |
| 20260507104513 | 18 | 15 | 6.4 | 6.4 | 0.00 | 0.00 | 0.00 | 71 | 1012.5 |
| 20260507104014 | 18 | 19 | 8.0 | 8.0 | 0.00 | 0.00 | 0.00 | 72 | 1012.9 |
| 20260507103509 | 18 | 46 | 1.6 | 3.2 | 0.00 | 0.00 | 0.00 | 74 | 1012.5 |
| 20260507103023 | 18 | 63 | 3.2 | 4.8 | 0.00 | 0.00 | 0.00 | 73 | 1012.9 |
| 20260507102509 | 18 | 93 | 4.8 | 8.0 | 0.00 | 0.00 | 0.00 | 73 | 1012.9 |
| 20260507102013 | 18 | 61 | 8.0 | 11.3 | 0.00 | 0.00 | 0.00 | 73 | 1012.9 |
| 20260507101513 | 18 | 17 | 8.0 | 9.7 | 0.00 | 0.00 | 0.00 | 72 | 1012.9 |
| 20260507101013 | 18 | 354 | 9.7 | 14.5 | 0.00 | 0.00 | 0.00 | 71 | 1012.9 |
| 20260507100509 | 18 | 77 | 6.4 | 11.3 | 0.00 | 0.00 | 0.00 | 71 | 1012.9 |
| 20260507100033 | 20 | 358 | 1.6 | 3.2 | 0.00 | 0.00 | 0.00 | 71 | 1012.9 |
| 20260507095509 | 18 | 14 | 6.4 | 8.0 | 0.00 | 0.00 | 0.00 | 71 | 1012.9 |
| 20260507095013 | 18 | 22 | 8.0 | 11.3 | 0.00 | 0.00 | 0.00 | 71 | 1012.5 |
| 20260507094512 | 18 | 0 | 4.8 | 6.4 | 0.00 | 0.00 | 0.00 | 72 | 1012.5 |
| 20260507094013 | 18 | 266 | 3.2 | 3.2 | 0.00 | 0.00 | 0.00 | 73 | 1012.5 |
| 20260507093509 | 20 | 90 | 6.4 | 8.0 | 0.00 | 0.00 | 0.00 | 71 | 1012.5 |
| 20260507093024 | 18 | 15 | 1.6 | 3.2 | 0.00 | 0.00 | 0.00 | 72 | 1012.5 |
| 20260507092509 | 18 | 78 | 9.7 | 11.3 | 0.00 | 0.00 | 0.00 | 72 | 1012.5 |
| 20260507092013 | 18 | 30 | 8.0 | 11.3 | 0.00 | 0.00 | 0.00 | 72 | 1012.5 |
| 20260507091513 | 18 | 2 | 4.8 | 6.4 | 0.00 | 0.00 | 0.00 | 73 | 1012.2 |
| 20260507091013 | 18 | 138 | 1.6 | 3.2 | 0.00 | 0.00 | 0.00 | 74 | 1012.2 |
| 20260507090509 | 18 | 103 | 6.4 | 9.7 | 0.00 | 0.00 | 0.00 | 72 | 1012.2 |
| 20260507090033 | 18 | 39 | 1.6 | 3.2 | 0.00 | 0.00 | 0.00 | 72 | 1012.2 |
| 20260507085509 | 18 | 58 | 6.4 | 11.3 | 0.00 | 0.00 | 0.00 | 73 | 1012.2 |
| 20260507085013 | 18 | 338 | 8.0 | 9.7 | 0.00 | 0.00 | 0.00 | 72 | 1011.9 |
| 20260507084513 | 18 | 73 | 6.4 | 8.0 | 0.00 | 0.00 | 0.00 | 72 | 1012.2 |
| 20260507084013 | 18 | 28 | 3.2 | 4.8 | 0.00 | 0.00 | 0.00 | 71 | 1012.2 |
| 20260507083510 | 18 | 121 | 4.8 | 6.4 | 0.00 | 0.00 | 0.00 | 72 | 1012.2 |
| 20260507083024 | 18 | 35 | 6.4 | 8.0 | 0.00 | 0.00 | 0.00 | 72 | 1012.2 |
| 20260507082509 | 18 | 55 | 9.7 | 11.3 | 0.00 | 0.00 | 0.00 | 71 | 1012.2 |
| 20260507082013 | 18 | 94 | 9.7 | 11.3 | 0.00 | 0.00 | 0.00 | 73 | 1012.2 |
| 20260507081513 | 18 | 75 | 9.7 | 11.3 | 0.00 | 0.00 | 0.00 | 73 | 1012.5 |
| 20260507081012 | 18 | 30 | 6.4 | 6.4 | 0.00 | 0.00 | 0.00 | 72 | 1012.2 |
| 20260507080509 | 18 | 66 | 6.4 | 9.7 | 0.00 | 0.00 | 0.00 | 72 | 1012.5 |
| 20260507080033 | 18 | 338 | 4.8 | 6.4 | 0.00 | 0.00 | 0.00 | 72 | 1012.5 |
| 20260507075510 | 18 | 71 | 6.4 | 6.4 | 0.00 | 0.00 | 0.00 | 73 | 1012.2 |
| 20260507075013 | 18 | 358 | 6.4 | 6.4 | 0.00 | 0.00 | 0.00 | 72 | 1012.5 |
| 20260507074513 | 18 | 3 | 6.4 | 6.4 | 0.00 | 0.00 | 0.00 | 72 | 1012.2 |
| 20260507074013 | 18 | 42 | 4.8 | 6.4 | 0.00 | 0.00 | 0.00 | 72 | 1012.2 |
| 20260507073510 | 18 | 91 | 9.7 | 11.3 | 0.00 | 0.00 | 0.00 | 71 | 1012.2 |
| 20260507073024 | 18 | 7 | 3.2 | 3.2 | 0.00 | 0.00 | 0.00 | 71 | 1012.5 |
| 20260507072509 | 18 | 112 | 3.2 | 3.2 | 0.00 | 0.00 | 0.00 | 71 | 1012.9 |
| 20260507072013 | 18 | 26 | 3.2 | 6.4 | 0.00 | 0.00 | 0.00 | 72 | 1012.5 |
| 20260507071513 | 18 | 94 | 3.2 | 6.4 | 0.00 | 0.00 | 0.00 | 72 | 1012.5 |
| 20260507071014 | 18 | 47 | 3.2 | 4.8 | 0.00 | 0.00 | 0.00 | 73 | 1012.5 |
| 20260507070510 | 18 | 7 | 4.8 | 6.4 | 0.00 | 0.00 | 0.00 | 72 | 1012.9 |
| 20260507070035 | 18 | 9 | 3.2 | 6.4 | 0.00 | 0.00 | 0.00 | 73 | 1012.5 |
| 20260507065510 | 18 | 137 | 1.6 | 3.2 | 0.00 | 0.00 | 0.00 | 74 | 1012.2 |
| 20260507065013 | 17 | 32 | 3.2 | 4.8 | 0.00 | 0.00 | 0.00 | 75 | 1012.2 |
| 20260507064513 | 17 | 129 | 8.0 | 9.7 | 0.00 | 0.00 | 0.00 | 74 | 1012.2 |
| 20260507064014 | 17 | 105 | 6.4 | 6.4 | 0.00 | 0.00 | 0.00 | 75 | 1012.2 |
| 20260507063509 | 17 | 99 | 3.2 | 3.2 | 0.00 | 0.00 | 0.00 | 76 | 1012.2 |
| 20260507063025 | 17 | 29 | 3.2 | 3.2 | 0.00 | 0.00 | 0.00 | 75 | 1012.2 |
| 20260507062509 | 17 | 56 | 1.6 | 3.2 | 0.00 | 0.00 | 0.00 | 75 | 1012.2 |
| 20260507062013 | 18 | 46 | 8.0 | 9.7 | 0.00 | 0.00 | 0.00 | 72 | 1011.9 |
| 20260507061514 | 18 | 328 | 1.6 | 3.2 | 0.00 | 0.00 | 0.00 | 74 | 1011.9 |
| 20260507061015 | 17 | 26 | 3.2 | 6.4 | 0.00 | 0.00 | 0.00 | 74 | 1011.9 |
| 20260507060509 | 17 | 33 | 3.2 | 6.4 | 0.00 | 0.00 | 0.00 | 75 | 1011.9 |
| 20260507060032 | 17 | 58 | 3.2 | 3.2 | 0.00 | 0.00 | 0.00 | 74 | 1011.9 |
| 20260507055509 | 17 | 68 | 6.4 | 11.3 | 0.00 | 0.00 | 0.00 | 74 | 1011.9 |
| 20260507055014 | 17 | 42 | 4.8 | 4.8 | 0.00 | 0.00 | 0.00 | 74 | 1011.9 |
| 20260507054513 | 17 | 18 | 3.2 | 6.4 | 0.00 | 0.00 | 0.00 | 73 | 1011.5 |
| 20260507054013 | 17 | 245 | 1.6 | 3.2 | 0.00 | 0.00 | 0.00 | 76 | 1011.5 |
| 20260507053509 | 17 | 315 | 6.4 | 11.3 | 0.00 | 0.00 | 0.00 | 75 | 1011.5 |
| 20260507053022 | 17 | 308 | 3.2 | 6.4 | 0.00 | 0.00 | 0.00 | 75 | 1011.5 |
| 20260507052509 | 17 | 44 | 4.8 | 6.4 | 0.00 | 0.00 | 0.00 | 75 | 1011.9 |
| 20260507052013 | 17 | 37 | 4.8 | 6.4 | 0.00 | 0.00 | 0.00 | 75 | 1011.5 |
| 20260507051513 | 17 | 72 | 8.0 | 11.3 | 0.00 | 0.00 | 0.00 | 75 | 1011.5 |
| 20260507051013 | 17 | 57 | 3.2 | 6.4 | 0.00 | 0.00 | 0.00 | 76 | 1011.5 |
| 20260507050510 | 17 | 9 | 1.6 | 3.2 | 0.00 | 0.00 | 0.00 | 75 | 1011.2 |
| 20260507050032 | 17 | 157 | 3.2 | 3.2 | 0.00 | 0.00 | 0.00 | 76 | 1011.5 |
| 20260507045510 | 17 | 356 | 3.2 | 4.8 | 0.00 | 0.00 | 0.00 | 76 | 1011.2 |
| 20260507045012 | 17 | 320 | 9.7 | 11.3 | 0.00 | 0.00 | 0.00 | 76 | 1011.2 |
| 20260507044513 | 17 | 311 | 1.6 | 3.2 | 0.00 | 0.00 | 0.00 | 77 | 1011.2 |
| 20260507044013 | 17 | 348 | 3.2 | 6.4 | 0.00 | 0.00 | 0.00 | 77 | 1011.2 |
| 20260507043509 | 17 | 234 | 4.8 | 6.4 | 0.00 | 0.00 | 0.00 | 77 | 1011.2 |
| 20260507043022 | 17 | 38 | 6.4 | 8.0 | 0.00 | 0.00 | 0.00 | 77 | 1011.2 |
| 20260507042509 | 17 | 300 | 6.4 | 6.4 | 0.00 | 0.00 | 0.00 | 77 | 1011.2 |
| 20260507042013 | 17 | 275 | 6.4 | 11.3 | 0.00 | 0.00 | 0.00 | 78 | 1011.2 |
| 20260507041513 | 17 | 291 | 9.7 | 11.3 | 0.00 | 0.00 | 0.00 | 77 | 1011.2 |
| 20260507041013 | 17 | 329 | 9.7 | 14.5 | 0.00 | 0.00 | 0.00 | 76 | 1011.2 |
| 20260507040509 | 17 | 347 | 9.7 | 11.3 | 0.00 | 0.00 | 0.00 | 77 | 1011.2 |
| 20260507040031 | 17 | 0 | 11.3 | 14.5 | 0.00 | 0.00 | 0.00 | 78 | 1011.2 |
| 20260507035510 | 17 | 267 | 6.4 | 8.0 | 0.00 | 0.00 | 0.00 | 78 | 1011.2 |
| 20260507035013 | 17 | 135 | 3.2 | 4.8 | 0.00 | 0.00 | 0.00 | 78 | 1010.8 |
| 20260507034014 | 17 | 334 | 11.3 | 14.5 | 0.00 | 0.00 | 0.00 | 78 | 1011.2 |
| 20260507033509 | 17 | 344 | 16.1 | 19.3 | 0.00 | 0.00 | 0.00 | 78 | 1011.2 |
| 20260507033022 | 16 | 337 | 12.9 | 14.5 | 0.00 | 0.00 | 0.00 | 79 | 1011.2 |
| 20260507032512 | 16 | 332 | 16.1 | 19.3 | 0.00 | 0.00 | 0.00 | 81 | 1010.8 |
| 20260507032013 | 16 | 130 | 3.2 | 4.8 | 0.00 | 0.00 | 0.00 | 84 | 1011.2 |
| 20260507031513 | 16 | 329 | 3.2 | 4.8 | 0.00 | 0.00 | 0.00 | 86 | 1010.8 |
| 20260507031013 | 16 | 135 | 1.6 | 3.2 | 0.00 | 0.00 | 0.00 | 86 | 1010.8 |
| 20260507030509 | 16 | 99 | 3.2 | 3.2 | 0.00 | 0.00 | 0.00 | 86 | 1011.2 |
| 20260507030034 | 16 | 33 | 12.9 | 14.5 | 0.00 | 0.00 | 0.00 | 86 | 1011.2 |
| 20260507025509 | 16 | 281 | 4.8 | 6.4 | 0.00 | 0.00 | 0.00 | 86 | 1011.2 |
| 20260507025012 | 16 | 19 | 3.2 | 3.2 | 0.00 | 0.00 | 0.00 | 86 | 1011.2 |
| 20260507024513 | 16 | 6 | 6.4 | 8.0 | 0.00 | 0.00 | 0.00 | 86 | 1010.8 |
| 20260507024013 | 16 | 28 | 4.8 | 6.4 | 0.00 | 0.00 | 0.00 | 86 | 1011.2 |
| 20260507023509 | 16 | 343 | 4.8 | 6.4 | 0.00 | 0.00 | 0.00 | 86 | 1011.2 |
| 20260507023022 | 16 | 9 | 4.8 | 6.4 | 0.00 | 0.00 | 0.00 | 86 | 1010.8 |
| 20260507022510 | 16 | 309 | 6.4 | 8.0 | 0.00 | 0.00 | 0.00 | 86 | 1011.2 |
| 20260507022013 | 16 | 23 | 3.2 | 3.2 | 0.00 | 0.00 | 0.00 | 86 | 1011.2 |
| 20260507021514 | 16 | 286 | 4.8 | 6.4 | 0.00 | 0.00 | 0.00 | 86 | 1011.2 |
| 20260507021013 | 16 | 347 | 6.4 | 14.5 | 0.00 | 0.00 | 0.00 | 86 | 1011.2 |
| 20260507020509 | 16 | 354 | 8.0 | 11.3 | 0.00 | 0.00 | 0.00 | 85 | 1011.2 |
| 20260507020031 | 16 | 85 | 8.0 | 9.7 | 0.00 | 0.00 | 0.00 | 85 | 1010.8 |
| 20260507015509 | 16 | 107 | 6.4 | 8.0 | 0.00 | 0.00 | 0.00 | 85 | 1010.8 |
| 20260507015013 | 16 | 289 | 1.6 | 1.6 | 0.00 | 0.00 | 0.00 | 85 | 1010.8 |
| 20260507014512 | 16 | 178 | 1.6 | 3.2 | 0.00 | 0.00 | 0.00 | 85 | 1010.8 |
| 20260507014014 | 16 | 181 | 0.0 | 1.6 | 0.00 | 0.00 | 0.00 | 85 | 1010.8 |
| 20260507013509 | 16 | 0 | 6.4 | 8.0 | 0.00 | 0.00 | 0.00 | 84 | 1010.8 |
| 20260507013022 | 16 | 144 | 3.2 | 3.2 | 0.00 | 0.00 | 0.00 | 84 | 1011.2 |
| 20260507012509 | 16 | 25 | 3.2 | 3.2 | 0.00 | 0.00 | 0.00 | 84 | 1010.8 |
| 20260507012014 | 16 | 264 | 3.2 | 4.8 | 0.00 | 0.00 | 0.00 | 83 | 1010.8 |
| 20260507011513 | 16 | 353 | 3.2 | 6.4 | 0.00 | 0.00 | 0.00 | 83 | 1010.8 |
| 20260507011013 | 16 | 132 | 1.6 | 3.2 | 0.00 | 0.00 | 0.00 | 83 | 1010.8 |
| 20260507010509 | 16 | 45 | 4.8 | 6.4 | 0.00 | 0.00 | 0.00 | 82 | 1010.8 |
| 20260507010031 | 16 | 96 | 3.2 | 4.8 | 0.00 | 0.00 | 0.00 | 82 | 1010.8 |